Location: Costa Valle Imagna
(45.8000°N, 9.5000°E)
Time: 15:44:13
(UTC+00:00)

GEOS 3 Rocket - Pass Details

Date: 17 February 2020
Orbit: 777 x 842 km, 115.0° (Epoch: 07 April)

Event Time Altitude Azimuth Distance (km) Brightness Sun altitude
Rises 04:11:46 0° 37° (NE) 3,365 7.5 -23.3°
Reaches altitude 10° 04:14:03 10° 37° (NE) 2,437 6.6 -23.0°
Maximum altitude 04:19:22 81° 311° (NW) 851 3.6 -22.0°
Enters shadow 04:21:28 39° 229° (SW) 1,241 4.2 -21.7°
